User: anonymous   Login
Location: Terra Rouge Observatory
(46.0000°N, 62.7500°W)
Time: 08:00:16
(UTC-04:00)
Language:

NOSS 3-1 (A) - Orbit

View from above orbital plane
View from above orbital plane
View from above satellite
View from above satellite

Ground track
Ground track

The orbit data is extracted from the following two-line orbital elements,

1 26905U 01040A   14314.75522516 0.00000000  00000-0  00000-0 0    06
2 26905  63.4260 295.9541 0289000 357.7281   2.2719 13.40699925    01
Epoch (UTC): 10 November 2014 18:07:31
Eccentricity: 0.0289000
inclination: 63.4260°
perigee height: 890 km
apogee height: 1323 km
right ascension of ascending node: 295.9541°
argument of perigee: 357.7281°
revolutions per day: 13.40699925
mean anomaly at epoch: 2.2719°
orbit number at epoch: 0

The dashed part of the orbit path shows where the satellite is in the earth's shadow,  

DLR